星链-2006 (STARLINK-2006 )

导读

STARLINK-2006是美国SpaceX星链星座的一员,于2021年2月4日发射升空,归属星链互联网卫星组网项目。它是第一代星链卫星,承担全球低轨卫星互联网服务组网任务,运行在近地轨道,为全球用户提供高速互联网接入服务,助力星链星座实现全球覆盖,目前已在轨运行超5年。

基本信息
目录编号:
47601
目录名称:
STARLINK-2006
国际标识:
2021-009BF
轨道中心:
EARTH
卫星名称:
星链-2006
卫星全名:
星链-2006 (STARLINK-2006 )
卫星状态:
已陨落 最后检测时间 2025-02-22
发射日期:
2021-02-04 UTC
国别 :
美国 (US)
星等 :
--
该卫星已列入 空间交会检测服务 Space Conjunction Data Service (SCDS) ,当前飞行风险评估等级: 无高风险
轨道信息
数据来源 国际轨道数据
星历时间: 2025-02-22T07:22:28+0800
轨道信息已过期566天
半长轴: 6541.948km
偏心率: 0.0006485
轨道倾角: 53.033°
近地点辐角 279.779°
升交点赤经 230.064°
平近点角 223.347°
近地点: 159.57km
远地点: 168.056km
周期: 87.765分钟
每日圈数: 16.407492
详细信息
固有亮度:
5
最大亮度:
2.5
卫星平台:
Starlink V1.0
覆盖范围:
全球
运营商:
太空探索技术公司
运营商所在国:
美国
制造商(研发单位):
太空探索技术公司
制造商所在国:
美国
使用方式:
暂无
卫星简介
星链(Starlink)计划是由太空探索技术公司(SpaceX)提出的一个巨型低轨卫星互联网星座项目,计划在2019年至2024年间在太空搭建由约1.2万颗卫星组成的“星链”网络,其中1584颗将部署在地球上空550千米处的近地轨道,并从2020年开始工作。该卫星仍在工作。
与全量物体交会距离演化趋势
与全量物体交会风险概率演化趋势